[[{"header":{"parameterUnit":"m.s-1","parameterCategory":1,"la1":30.2991,"la2":30.254,"lo1":-89.0895,"lo2":-89.0444,"dy":0.0017,"dx":0.0017,"nx":28,"ny":28,"refTime":"2024-12-01T09:00:00:Z","depth":0,"parameterNumber":2,"parameterNumberName":"U-component_of_WINDS"},"data":[0,0,0,0,0,0,0,0,0,0,0,0,0,0,0,0,0,0,0,0,0,0,0,0,0,0,0,0,0,0,0,0,0,0,0,0,0,0,0,0,0,0,0,0,0,0,0,0,0,0,0,0,0,0,0,0,0,0,-1.8637,-1.8638,0,-1.8725,-1.8726,-1.8727,-1.8737,-1.8736,-1.8735,-1.8734,-1.8821,-1.8824,-1.8827,0,0,0,0,0,0,0,0,0,0,0,0,0,-1.8474,-1.8477,-1.8637,-1.8639,-1.864,-1.8725,-1.8726,-1.8728,-1.8737,-1.8736,-1.8735,-1.8734,-1.882,-1.8824,-1.8828,0,0,0,0,0,0,0,0,0,0,0,0,0,-1.8552,-1.8478,-1.8637,-1.8655,-1.8657,-1.8725,-1.8726,-1.8728,-1.8737,-1.8736,-1.8734,-1.8733,-1.8819,-1.8824,-1.8828,-1.8884,0,0,-1.8843,-1.8845,0,0,0,0,0,0,0,0,-1.8548,-1.8558,-1.8651,-1.8654,-1.8656,-1.8719,-1.8701,-1.878,-1.8737,-1.8707,-1.8734,-1.8732,-1.8788,-1.8795,-1.8815,-1.8888,-1.8892,-1.8843,-1.8846,-1.8848,-1.8849,0,0,0,0,0,0,0,-1.8542,-1.8554,-1.8672,-1.8652,-1.8656,-1.8657,-1.8666,-1.8716,-1.8754,-1.8709,-1.871,-1.872,-1.8789,-1.881,-1.8817,-1.8893,-1.8843,-1.8847,-1.885,-1.8852,-1.9015,-1.9016,0,0,0,0,0,0,-1.8534,-1.855,-1.8669,-1.8675,-1.8598,-1.8661,-1.8672,-1.87,-1.8753,-1.876,-1.8722,-1.8721,-1.8803,-1.8811,-1.882,-1.8887,-1.8848,-1.8852,-1.8855,-1.9013,-1.9015,-1.9017,0,0,0,0,0,0,-1.853,-1.8545,-1.8666,-1.8613,-1.8628,-1.8665,-1.8697,-1.8702,-1.8723,-1.8763,-1.8769,-1.8736,-1.8802,-1.8813,-1.8868,-1.889,-1.8855,-1.8859,-1.9012,-1.9014,-1.9016,-1.9022,0,0,0,0,0,0,-1.8526,-1.8543,-1.8566,-1.8613,-1.8631,-1.8713,-1.8698,-1.8705,-1.8732,-1.8731,-1.8778,-1.8784,-1.8802,-1.8861,-1.8872,-1.8896,-1.8863,-1.901,-1.9013,-1.9015,-1.902,-1.9025,-1.9028,0,0,0,0,0,-1.852,-1.8564,-1.8567,-1.8581,-1.866,-1.8714,-1.8725,-1.8745,-1.8733,-1.8755,-1.8781,-1.8783,-1.8886,-1.8866,-1.8879,-1.8905,-1.9008,-1.9012,-1.9015,-1.9019,-1.9024,-1.9028,0,0,0,0,0,0,-1.8517,-1.857,-1.8574,-1.8635,-1.867,-1.8716,-1.8744,-1.875,-1.8788,-1.8786,-1.8809,-1.8819,-1.8872,-1.8894,-1.8871,-1.8961,-1.8946,-1.8952,-1.8944,-1.8949,-1.8953,-1.8946,-1.8866,0,0,0,0,0,-1.8524,-1.8565,-1.8609,-1.8658,-1.8676,-1.8707,-1.8732,-1.8744,-1.8781,-1.8796,-1.8825,-1.886,-1.89,-1.8926,-1.8966,-1.9024,-1.9033,-1.9048,-1.9052,-1.9055,-1.9059,-1.909,-1.9096,-1.9028,-1.9028,-1.9028,0,0,-1.8538,-1.8572,-1.8596,-1.8658,-1.8687,-1.8728,-1.8719,-1.8763,-1.8793,-1.8802,-1.8855,-1.8878,-1.8919,-1.8975,-1.9001,-1.8995,-1.9081,-1.9059,-1.9061,-1.9064,-1.9094,-1.9101,-1.9106,-1.903,-1.903,-1.9029,0,0,-1.8583,-1.8614,-1.8657,-1.8687,-1.873,-1.8751,-1.8761,-1.8807,-1.8822,-1.8876,-1.8883,-1.8919,-1.8988,-1.9016,-1.904,-1.9095,-1.9098,-1.9108,-1.9128,-1.9157,-1.9162,-1.9167,-1.9185,-1.9191,-1.9112,-1.9112,-1.9112,0,-1.8594,-1.8657,-1.8679,-1.8722,-1.8748,-1.876,-1.8803,-1.883,-1.8884,-1.8901,-1.8894,-1.8981,-1.9009,-1.9071,-1.9084,-1.9104,-1.9115,-1.9102,-1.916,-1.9165,-1.917,-1.9187,-1.9194,-1.9113,-1.9113,-1.9113,-1.9113,0,-1.8667,-1.871,-1.874,-1.8792,-1.8822,-1.8866,-1.8893,-1.892,-1.893,-1.8951,-1.9005,-1.9039,-1.9085,-1.9101,-1.9111,-1.9164,-1.9159,-1.9156,-1.9141,-1.9177,-1.9193,-1.92,-1.9114,-1.9114,-1.9114,-1.9114,0,0,-1.8712,-1.8777,-1.8787,-1.881,-1.8859,-1.8893,-1.8936,-1.8981,-1.9003,-1.904,-1.9076,-1.9134,-1.9131,-1.9158,-1.9171,-1.9197,-1.9237,-1.9191,-1.9192,-1.9196,-1.9295,-1.9295,-1.9303,-1.9239,-1.9241,-1.9242,-1.9291,0,-1.8762,-1.8839,-1.886,-1.8926,-1.8965,-1.8976,-1.9013,-1.9046,-1.9067,-1.9102,-1.9125,-1.9165,-1.9159,-1.9175,-1.9202,-1.9226,-1.9256,-1.9223,-1.9271,-1.9272,-1.9258,-1.9312,-1.9313,-1.9357,-1.9297,-1.9299,-1.9299,0,-1.883,-1.8868,-1.8937,-1.898,-1.8998,-1.9031,-1.9073,-1.9108,-1.9145,-1.9158,-1.9188,-1.9199,-1.9242,-1.9227,-1.9287,-1.9264,-1.9284,-1.9299,-1.9301,-1.9305,-1.9286,-1.9315,-1.9372,-1.9378,-1.931,-1.9309,-1.9309,0,-1.8853,-1.8922,-1.8972,-1.8992,-1.9044,-1.9067,-1.909,-1.9126,-1.9152,-1.9189,-1.9205,-1.9247,-1.9269,-1.9301,-1.9322,-1.9309,-1.9379,-1.9366,-1.9389,-1.9389,-1.9402,-1.9401,-1.9461,-1.9419,-1.9419,-1.9419,-1.9419,0,-1.8905,-1.8946,-1.8983,-1.9014,-1.906,-1.9084,-1.9128,-1.9151,-1.9183,-1.9217,-1.923,-1.9262,-1.9289,-1.9323,-1.934,-1.9386,-1.9397,-1.9407,-1.9411,-1.9405,-1.9403,-1.9417,-1.9414,-1.9421,-1.942,-1.942,-1.9419,0,-1.8938,-1.8965,-1.902,-1.9065,-1.9077,-1.9109,-1.9146,-1.9176,-1.9197,-1.924,-1.9251,-1.9284,-1.9326,-1.9351,-1.9403,-1.9414,-1.9464,-1.9468,-1.9451,-1.9453,-1.9474,-1.9471,-1.9545,-1.9555,-1.9507,-1.9508,-1.9508,0,-1.8968,-1.9,-1.9049,-1.9073,-1.9096,-1.9134,-1.916,-1.9185,-1.9211,-1.9256,-1.9279,-1.9322,-1.9357,-1.9423,-1.9451,-1.9491,-1.9494,-1.9517,-1.95,-1.9492,-1.9492,-1.9489,-1.9491,-1.9519,-1.9519,-1.952,-1.952,0,-1.9019,-1.903,-1.9068,-1.911,-1.9141,-1.9175,-1.9209,-1.9228,-1.9257,-1.9286,-1.9329,-1.9357,-1.941,-1.9451,-1.9494,-1.9516,-1.9522,-1.9525,-1.9533,-1.9526,-1.9514,-1.9519,-1.9457,-1.9523,-1.9523,-1.9523,-1.9522,-1.9522,-1.905,-1.9078,-1.9116,-1.9157,-1.9186,-1.9217,-1.9246,-1.9271,-1.9308,-1.9353,-1.9366,-1.941,-1.9446,-1.9503,-1.9526,-1.956,-1.9557,-1.9568,-1.957,-1.9572,-1.9571,-1.9511,-1.9568,-1.9568,-1.9568,-1.9568,-1.9568,0,-1.9099,-1.9124,-1.9162,-1.9209,-1.9241,-1.9246,-1.9283,-1.9309,-1.9348,-1.9382,-1.9416,-1.9464,-1.9504,-1.9536,-1.9576,-1.9598,-1.9602,-1.9607,-1.9605,-1.961,-1.9573,-1.9562,-1.9603,-1.9603,-1.9603,-1.9603,-1.9603,-1.9603,-1.9128,-1.9176,-1.9192,-1.9253,-1.9278,-1.9322,-1.9343,-1.9371,-1.9397,-1.9451,-1.9485,-1.9505,-1.9537,-1.958,-1.9616,-1.9625,-1.9638,-1.9643,-1.9651,-1.9616,-1.9612,-1.9609,-1.9598,-1.9646,-1.9646,-1.9684,-1.9685,-1.9685]},{"header":{"parameterUnit":"m.s-1","parameterCategory":1,"la1":30.2991,"la2":30.254,"lo1":-89.0895,"lo2":-89.0444,"dy":0.0017,"dx":0.0017,"nx":28,"ny":28,"refTime":"2024-12-01T09:00:00:Z","depth":0,"parameterNumber":3,"parameterNumberName":"V-component_of_WINDS"},"data":[0,0,0,0,0,0,0,0,0,0,0,0,0,0,0,0,0,0,0,0,0,0,0,0,0,0,0,0,0,0,0,0,0,0,0,0,0,0,0,0,0,0,0,0,0,0,0,0,0,0,0,0,0,0,0,0,0,0,-2.1241,-2.1241,0,-2.1234,-2.1234,-2.1234,-2.1243,-2.1244,-2.1244,-2.1245,-2.1237,-2.1237,-2.1236,0,0,0,0,0,0,0,0,0,0,0,0,0,-2.1262,-2.1261,-2.1241,-2.1241,-2.1241,-2.1234,-2.1234,-2.1234,-2.1243,-2.1244,-2.1244,-2.1245,-2.1237,-2.1237,-2.1236,0,0,0,0,0,0,0,0,0,0,0,0,0,-2.1254,-2.1261,-2.1241,-2.1245,-2.1245,-2.1234,-2.1234,-2.1234,-2.1243,-2.1244,-2.1244,-2.1245,-2.1238,-2.1237,-2.1236,-2.1221,0,0,-2.1234,-2.1233,0,0,0,0,0,0,0,0,-2.1254,-2.1253,-2.1244,-2.1245,-2.1245,-2.124,-2.1239,-2.1229,-2.1243,-2.1244,-2.1245,-2.1245,-2.1238,-2.1237,-2.1235,-2.1221,-2.122,-2.1234,-2.1233,-2.1233,-2.1233,0,0,0,0,0,0,0,-2.1255,-2.1253,-2.1238,-2.1244,-2.1244,-2.1247,-2.1246,-2.1237,-2.1238,-2.1244,-2.1245,-2.1244,-2.1238,-2.1235,-2.1234,-2.122,-2.1234,-2.1233,-2.1233,-2.1232,-2.1191,-2.1191,0,0,0,0,0,0,-2.1255,-2.1254,-2.1238,-2.1238,-2.1251,-2.1246,-2.1245,-2.1241,-2.1238,-2.1238,-2.1243,-2.1244,-2.1236,-2.1235,-2.1234,-2.1215,-2.1233,-2.1232,-2.1232,-2.1192,-2.1191,-2.1191,0,0,0,0,0,0,-2.1255,-2.1253,-2.1239,-2.1246,-2.1244,-2.1245,-2.124,-2.1241,-2.1238,-2.1238,-2.1238,-2.124,-2.1237,-2.1235,-2.1224,-2.1214,-2.1232,-2.1231,-2.1193,-2.1192,-2.1191,-2.1176,0,0,0,0,0,0,-2.1256,-2.1253,-2.1248,-2.1246,-2.1244,-2.1229,-2.124,-2.124,-2.1237,-2.1238,-2.1235,-2.1235,-2.1237,-2.1225,-2.1223,-2.1214,-2.1231,-2.1194,-2.1192,-2.1191,-2.1177,-2.1175,-2.1173,0,0,0,0,0,-2.1256,-2.1245,-2.1248,-2.1246,-2.1237,-2.1228,-2.1227,-2.123,-2.1236,-2.123,-2.123,-2.1235,-2.1216,-2.1224,-2.1222,-2.1212,-2.1194,-2.1193,-2.1191,-2.1178,-2.1175,-2.1173,0,0,0,0,0,0,-2.1246,-2.1244,-2.1248,-2.1235,-2.1231,-2.123,-2.1222,-2.1226,-2.1221,-2.1222,-2.1226,-2.1225,-2.1212,-2.1211,-2.122,-2.1196,-2.1206,-2.1204,-2.1197,-2.1194,-2.1192,-2.1191,-2.123,0,0,0,0,0,-2.1242,-2.1235,-2.1234,-2.1223,-2.1221,-2.1222,-2.1218,-2.122,-2.1217,-2.1216,-2.1214,-2.1211,-2.1204,-2.1199,-2.1193,-2.1178,-2.1176,-2.117,-2.1168,-2.1166,-2.1163,-2.1153,-2.115,-2.1186,-2.1186,-2.1186,0,0,-2.1234,-2.1233,-2.1228,-2.1221,-2.1218,-2.121,-2.1221,-2.1212,-2.1206,-2.1214,-2.1203,-2.1202,-2.1198,-2.1184,-2.1177,-2.1182,-2.1153,-2.1164,-2.1162,-2.1161,-2.1151,-2.1148,-2.1145,-2.1185,-2.1185,-2.1185,0,0,-2.1215,-2.1214,-2.1203,-2.1201,-2.1197,-2.1197,-2.1195,-2.1192,-2.1191,-2.118,-2.1185,-2.1178,-2.1167,-2.1163,-2.1159,-2.1138,-2.1142,-2.1136,-2.1122,-2.1112,-2.1109,-2.1107,-2.1097,-2.1094,-2.1134,-2.1134,-2.1134,0,-2.1206,-2.1194,-2.1198,-2.1188,-2.1184,-2.1191,-2.1179,-2.1177,-2.1171,-2.1168,-2.1174,-2.1158,-2.1156,-2.114,-2.1134,-2.1132,-2.1128,-2.1135,-2.111,-2.1107,-2.1105,-2.1095,-2.1092,-2.1133,-2.1133,-2.1133,-2.1133,0,-2.1182,-2.1173,-2.1165,-2.1159,-2.1154,-2.1144,-2.1145,-2.114,-2.1142,-2.1142,-2.1129,-2.1127,-2.1119,-2.1116,-2.1119,-2.11,-2.1103,-2.1109,-2.1119,-2.11,-2.1091,-2.1088,-2.1132,-2.1132,-2.1132,-2.1132,0,0,-2.1156,-2.115,-2.1147,-2.1143,-2.1139,-2.1132,-2.1122,-2.1114,-2.1109,-2.1105,-2.1095,-2.1084,-2.1089,-2.1086,-2.1088,-2.108,-2.106,-2.1087,-2.1087,-2.108,-2.1036,-2.103,-2.1026,-2.1063,-2.1062,-2.1062,-2.1036,0,-2.1135,-2.1117,-2.1119,-2.1101,-2.1092,-2.1098,-2.1089,-2.1085,-2.1084,-2.1076,-2.1076,-2.1067,-2.1076,-2.1073,-2.1065,-2.1064,-2.1051,-2.1066,-2.1052,-2.1052,-2.1051,-2.1021,-2.1015,-2.099,-2.1032,-2.1032,-2.1032,0,-2.1109,-2.1102,-2.1083,-2.1078,-2.1075,-2.1066,-2.1058,-2.1051,-2.1046,-2.1046,-2.1041,-2.1045,-2.1033,-2.1044,-2.1027,-2.1038,-2.1033,-2.1031,-2.103,-2.1027,-2.1039,-2.1016,-2.0983,-2.0978,-2.1027,-2.1027,-2.1027,0,-2.1089,-2.1076,-2.1062,-2.1059,-2.1054,-2.1047,-2.1045,-2.104,-2.1035,-2.1028,-2.1024,-2.1017,-2.1012,-2.1005,-2.1006,-2.1015,-2.0988,-2.1,-2.0986,-2.0986,-2.0979,-2.0979,-2.0943,-2.0979,-2.0979,-2.0979,-2.098,0,-2.1065,-2.1052,-2.1053,-2.1045,-2.103,-2.1033,-2.1019,-2.1017,-2.1012,-2.1003,-2.1008,-2.0999,-2.1002,-2.0993,-2.0993,-2.0978,-2.0976,-2.0975,-2.0975,-2.0973,-2.0973,-2.0968,-2.0969,-2.0978,-2.0979,-2.0979,-2.0979,0,-2.104,-2.104,-2.1025,-2.1021,-2.102,-2.1009,-2.1005,-2.0996,-2.0996,-2.0984,-2.0981,-2.098,-2.0969,-2.097,-2.0958,-2.0958,-2.0938,-2.0942,-2.094,-2.094,-2.0925,-2.0925,-2.0883,-2.0876,-2.0919,-2.0919,-2.0918,0,-2.1024,-2.1014,-2.1008,-2.1002,-2.0999,-2.0989,-2.0983,-2.0985,-2.0979,-2.0971,-2.0963,-2.0953,-2.0944,-2.0926,-2.0924,-2.0915,-2.0916,-2.0902,-2.0915,-2.0912,-2.0913,-2.0912,-2.091,-2.0898,-2.0898,-2.0898,-2.0897,0,-2.0994,-2.0994,-2.0985,-2.0976,-2.0969,-2.0962,-2.0955,-2.095,-2.0951,-2.0943,-2.0932,-2.0925,-2.0912,-2.0901,-2.0891,-2.0888,-2.0892,-2.0894,-2.0889,-2.0886,-2.0885,-2.0883,-2.093,-2.0894,-2.0894,-2.0895,-2.0895,-2.0895,-2.0971,-2.0962,-2.0956,-2.0945,-2.0941,-2.0934,-2.0925,-2.0923,-2.0913,-2.0902,-2.0904,-2.0891,-2.0884,-2.0872,-2.0868,-2.0857,-2.0862,-2.0856,-2.0855,-2.0853,-2.085,-2.0888,-2.0855,-2.0855,-2.0856,-2.0856,-2.0856,0,-2.094,-2.0936,-2.0926,-2.0916,-2.0907,-2.0912,-2.0905,-2.0897,-2.0885,-2.0879,-2.087,-2.0856,-2.0845,-2.0841,-2.083,-2.0822,-2.0823,-2.0819,-2.0818,-2.0817,-2.0847,-2.0851,-2.0817,-2.0817,-2.0817,-2.0817,-2.0817,-2.0817,-2.0922,-2.0906,-2.0905,-2.0886,-2.0882,-2.0869,-2.0864,-2.0857,-2.0852,-2.0835,-2.0826,-2.0824,-2.0818,-2.0806,-2.0796,-2.0795,-2.0789,-2.0783,-2.0783,-2.0811,-2.0815,-2.0819,-2.0822,-2.0783,-2.0783,-2.0753,-2.0753,-2.0753]}]]